Location: Shenandoah County Park
(38.9356°N, 78.4524°W)
Time: 03:29:51
(UTC-04:00)

BlueWalker 3 - Visible Passes

Search period start: 24 September 2023 00:00
Search period end: 04 October 2023 00:00
Orbit: 492 x 508 km, 53.2° (Epoch: 23 September)

Date Brightness Start Highest point End Pass type
(mag) Time Alt. Az. Time Alt. Az. Time Alt. Az.
24 Sep 4.7 04:47:06 11° N 04:47:06 11° N 04:47:54 10° N visible
24 Sep 4.6 06:25:31 10° N 06:26:40 11° N 06:27:49 10° NNE visible
25 Sep 4.7 06:04:02 10° N 06:05:10 11° N 06:06:20 10° NNE visible
26 Sep 4.7 05:42:31 10° N 05:43:40 11° N 05:44:49 10° NNE visible
27 Sep 4.7 05:20:59 10° N 05:22:09 11° N 05:23:18 10° NNE visible
28 Sep 4.7 04:59:27 10° N 05:00:36 11° N 05:01:46 10° NNE visible
28 Sep 3.7 06:36:39 10° NNW 06:40:04 30° NNE 06:43:31 10° E visible
29 Sep 4.8 04:38:48 11° N 04:39:04 11° NNE 04:40:13 10° NNE visible
29 Sep 3.7 06:15:05 10° NNW 06:18:32 30° NNE 06:21:58 10° E visible
30 Sep 5.1 04:18:23 10° NNE 04:18:23 10° NNE 04:18:40 10° NNE visible
30 Sep 3.7 05:53:31 10° NNW 05:56:57 30° NNE 06:00:24 10° E visible
01 Oct 3.6 05:32:41 14° NNW 05:35:22 30° NNE 05:38:49 10° E visible
02 Oct 3.6 05:12:29 24° N 05:13:47 30° NNE 05:17:14 10° E visible
03 Oct 3.7 04:52:26 30° NE 04:52:26 30° NE 04:55:37 10° E visible
03 Oct 2.6 06:27:06 10° WNW 06:30:38 36° SW 06:34:10 10° SSE visible
